Truth Or Consequences, NM

1:56 AM MDT on August 24, 2019 (GMT -0600)
Truth Or Consequences Municipal

Weather History for KTCS - July, 2019

Change the Weather History Date:

Sunday, July 21, 2019

  Actual Average Record
Temperature  
Mean Temperature 88 °F -  
Max Temperature 103 °F 91 °F 103 °F (2019)
Min Temperature 72 °F 68 °F 64 °F (1997)
Cooling Degree Days 23    
Month to date cooling degree days 407  
Year to date cooling degree days 1028  
Since 1 June cooling degree days 830  
Growing Degree Days 37 (Base 50)    
Moisture  
Dew Point 41 °F    
Average Humidity 23    
Maximum Humidity 35    
Minimum Humidity 11    
Precipitation  
Precipitation 0.00 in - 1.16 in (1999)
Month to date precipitation 0.87  
Year to date precipitation 1.99  
Sea Level Pressure  
Sea Level Pressure 29.78 in    
Wind  
Wind Speed 9 mph (North)    
Max Wind Speed 22 mph    
Max Gust Speed 37 mph    
Visibility 10 miles    
Events Thunderstorm    
T = Trace of Precipitation, MM = Missing Value Source: NWS Daily Summary

Daily Weather History Graph

Daily Weather History Graph

Search for Another Location

Airport or City:

Astronomy

Jul. 21, 2019 Rise Set
Actual Time 6:14 AM MDT 8:16 PM MDT
Civil Twilight 5:46 AM MDT 8:43 PM MDT
Nautical Twilight 5:12 AM MDT 9:17 PM MDT
Astronomical Twilight 4:36 AM MDT 9:53 PM MDT
Moon 11:24 PM MDT (7/21) 10:26 AM MDT (7/21)
Length of Visible Light 14h 57m
Length of Day
14h 01m
Waning Gibbous, 80% of the Moon is Illuminated
Jul 21
Waning Gibbous
Jul 24
Last Quarter
Jul 31
New
Aug 7
First Quarter
Aug 15
Full

Hourly Weather History & Observations

Time (MDT) Temp. Dew Point Humidity Pressure Visibility Wind Dir Wind Speed Gust Speed Precip Events Conditions
12:53 AM 80.1 °F 46.0 °F 30% 29.71 in 10.0 mi NNW 4.6 mph - N/A   Clear
1:53 AM 77.0 °F 46.0 °F 33% 29.72 in 10.0 mi NW 9.2 mph - N/A   Clear
2:53 AM 78.1 °F 45.0 °F 31% 29.71 in 10.0 mi WNW 9.2 mph - N/A   Clear
3:53 AM 80.1 °F 44.1 °F 28% 29.70 in 10.0 mi NW 10.4 mph - N/A   Clear
4:53 AM 75.0 °F 45.0 °F 34% 29.74 in 10.0 mi WNW 8.1 mph - N/A   Clear
5:53 AM 73.9 °F 45.0 °F 35% 29.76 in 10.0 mi NNW 4.6 mph - N/A   Clear
6:53 AM 75.9 °F 43.0 °F 31% 29.78 in 10.0 mi NW 5.8 mph - N/A   Clear
7:53 AM 82.0 °F 43.0 °F 25% 29.79 in 10.0 mi NW 4.6 mph - N/A   Clear
8:53 AM 86.0 °F 39.9 °F 20% 29.80 in 10.0 mi NE 4.6 mph - N/A   Clear
9:53 AM 90.0 °F 37.0 °F 15% 29.80 in 10.0 mi NNE 13.8 mph 18.4 mph N/A   Clear
10:53 AM 93.9 °F 37.9 °F 14% 29.79 in 10.0 mi NNE 10.4 mph - N/A   Clear
11:53 AM 96.1 °F 37.0 °F 13% 29.79 in 10.0 mi ENE 11.5 mph - N/A   Clear
12:53 PM 99.0 °F 37.9 °F 12% 29.77 in 10.0 mi NNE 5.8 mph - N/A   Clear
1:53 PM 100.0 °F 37.9 °F 12% 29.75 in 10.0 mi North - - N/A   Clear
2:53 PM 100.9 °F 36.0 °F 11% 29.73 in 10.0 mi North 8.1 mph - N/A   Clear
3:53 PM 100.0 °F 37.0 °F 11% 29.70 in 10.0 mi ESE 9.2 mph - N/A   Clear
4:53 PM 100.9 °F 37.0 °F 11% 29.70 in 10.0 mi SE 17.3 mph 26.5 mph N/A   Clear
5:27 PM 99.0 °F 36.0 °F 11% 30.00 in 10.0 mi SE 11.5 mph - N/A Thunderstorm Clear
5:44 PM 100.0 °F 36.0 °F 11% 30.00 in 10.0 mi SE 11.5 mph - N/A   Clear
5:53 PM 100.0 °F 37.0 °F 11% 29.70 in 10.0 mi East 9.2 mph - N/A   Clear
6:23 PM 93.9 °F 43.0 °F 17% 30.03 in 10.0 mi NNE 25.3 mph 36.8 mph N/A   Clear
6:53 PM 93.9 °F 43.0 °F 17% 29.75 in 10.0 mi NE 21.9 mph 32.2 mph N/A   Clear
7:53 PM 91.9 °F 43.0 °F 18% 29.75 in 10.0 mi ENE 12.7 mph - N/A   Clear
8:53 PM 88.0 °F 46.0 °F 23% 29.79 in 10.0 mi NNE 6.9 mph - N/A   Clear
9:53 PM 86.0 °F 46.0 °F 25% 29.81 in 10.0 mi West 5.8 mph - N/A   Clear
10:53 PM 84.9 °F 46.9 °F 27% 29.80 in 10.0 mi NNW 4.6 mph - N/A   Clear
11:53 PM 84.0 °F 46.9 °F 27% 29.79 in 10.0 mi NW 4.6 mph - N/A   Clear